Location: Unspecified
(44.0704°N, 88.6889°W)
Time: 19:05:14
(UTC+01:00)

CZ-3 Stage 3 - Pass Details

Date: 12 November 2019
Orbit: 406 x 34783 km, 30.5° (Epoch: 07 December)

Event Time Altitude Azimuth Distance (km) Brightness Sun altitude
Rises 01:57:57 0° 209° (SSW) 12,176 9.0 -26.2°
Reaches altitude 10° 09:43:09 10° 205° (SSW) 27,132 10.0 -43.3°
Maximum altitude 11:12:42 23° 172° (S) 7,325 7.5 -27.5°
Drops below altitude 10° 11:24:45 10° 125° (SE) 4,698 7.2 -25.4°
Sets 11:27:48 0° 109° (ESE) 4,718 7.8 -24.8°
